Regional Weather Roundup
Issued by NWS

Home | Current Version | Previous Version | Graphics & Text | Print | Product List | Glossary On
Versions: 1 2 3 4 5 6 7 8 9 10 11 12 13 14 15 16 17 18 19 20 21 22 23 24 25 26 27 28 29 30 31 32 33 34 35 36 37 38 39 40 41 42 43 44 45 46 47 48 49 50
000
ASUS43 KBIS 060310
RWRND

NORTH DAKOTA REGIONAL WEATHER ROUNDUP
NATIONAL WEATHER SERVICE BISMARCK ND
1000 PM CDT THU MAY 05 2016

NOTE: "FAIR" INDICATES FEW OR NO CLOUDS BELOW 12,000 FEET WITH NO
SIGNIFICANT WEATHER AND/OR OBSTRUCTIONS TO VISIBILITY.


NDZ001>003-009>011-017-060400-
NORTHWEST NORTH DAKOTA

CITY           SKY/WX    TMP DP  RH WIND       PRES   REMARKS
WILLISTON      CLEAR     66  43  43 W10       29.75R
MINOT          CLOUDY    77  40  26 SW8       29.72S
MINOT AFB      CLOUDY    69  42  36 SW7       29.71R
$$

NDZ018>021-031>035-040>046-060400-
SOUTHWEST NORTH DAKOTA

CITY           SKY/WX    TMP DP  RH WIND       PRES   REMARKS
BISMARCK       CLOUDY    68  48  48 CALM      29.78R
DICKINSON      CLOUDY    65  37  35 S5        29.79S
GARRISON         N/A     70  39  32 S3        29.76R
HETTINGER ARPT CLOUDY    67  50  54 SE6       29.84S
$$

NDZ004>008-012>016-024-026-027-054-060400-
NORTHEAST NORTH DAKOTA

CITY           SKY/WX    TMP DP  RH WIND       PRES   REMARKS
GRAND FORKS    PTCLDY    67  38  34 SW7       29.71S
GRND FRKS AFB  CLEAR     68  39  34 SW6       29.72S
DEVILS LAKE    CLOUDY    72  43  35 SW12      29.74S
$$

NDZ022-023-025-028>030-036>039-047>053-060400-
SOUTHEAST NORTH DAKOTA

CITY           SKY/WX    TMP DP  RH WIND       PRES   REMARKS
FARGO          CLEAR     76  40  27 SW12      29.76R
JAMESTOWN      CLEAR     73  44  35 W6        29.78R
$$




USA.gov is the U.S. government's official web portal to all federal, state and local government web resources and services.